Alabaster, AL

12:33 PM CST on December 08, 2019 (GMT -0600)
Shelby County

Weather History for KEET - November, 2019

Change the Weather History Date:

Friday, November 22, 2019

  Actual Average Record
Temperature  
Mean Temperature 61 °F 53 °F  
Max Temperature 71 °F 64 °F 77 °F (1963)
Min Temperature 50 °F 42 °F 19 °F (1964)
Degree Days  
Heating Degree Days 4 12  
Month to date heating degree days 331 211  
Since 1 July heating degree days 416 334  
Growing Degree Days 11 (Base 50)    
Moisture  
Dew Point 58 °F    
Average Humidity 83    
Maximum Humidity 100    
Minimum Humidity 66    
Precipitation  
Precipitation 0.07 in 0.17 in 2.00 in (1962)
Month to date precipitation 1.26 3.59  
Year to date precipitation 40.68 48.52  
Snow  
Snow 0.00 in - - ()
Month to date snowfall 0.0  
Since 1 July snowfall 0.0  
Since 1 September snowfall 0.0  
Snow Depth 0.00 in    
Sea Level Pressure  
Sea Level Pressure 30.02 in    
Wind  
Wind Speed 2 mph (SSW)    
Max Wind Speed 13 mph    
Max Gust Speed 18 mph    
Visibility 6 miles    
Events Rain    
T = Trace of Precipitation, MM = Missing Value Source: NWS Daily Summary

Daily Weather History Graph

Daily Weather History Graph

Search for Another Location

Airport or City:

Astronomy

Nov. 22, 2019 Rise Set
Actual Time 6:24 AM CST 4:41 PM CST
Civil Twilight 5:57 AM CST 5:08 PM CST
Nautical Twilight 5:27 AM CST 5:38 PM CST
Astronomical Twilight 4:57 AM CST 6:08 PM CST
Moon 1:48 AM CST (11/22) 2:25 PM CST (11/22)
Length of Visible Light 11h 10m
Length of Day
10h 17m
Waning Crescent, 19% of the Moon is Illuminated
Nov 22
Waning Crescent
Nov 26
New
Dec 4
First Quarter
Dec 11
Full
Dec 18
Last Quarter

Hourly Weather History & Observations

Time (CST) Temp. Dew Point Humidity Pressure Visibility Wind Dir Wind Speed Gust Speed Precip Events Conditions
12:53 AM 52.0 °F 44.1 °F 74% 30.10 in 10.0 mi Calm Calm - N/A   Clear
1:53 AM 54.0 °F 46.9 °F 77% 30.10 in 10.0 mi Calm Calm - N/A   Partly Cloudy
2:53 AM 54.0 °F 48.0 °F 80% 30.08 in 10.0 mi South 3.5 mph - N/A   Clear
3:26 AM 53.1 °F 48.9 °F 86% 30.08 in 10.0 mi Calm Calm - N/A   Mostly Cloudy
3:53 AM 51.1 °F 48.0 °F 89% 30.07 in 10.0 mi Calm Calm - N/A   Partly Cloudy
4:53 AM 51.1 °F 48.0 °F 89% 30.08 in 10.0 mi Calm Calm - N/A   Clear
5:53 AM 51.1 °F 48.0 °F 89% 30.08 in 10.0 mi Calm Calm - N/A   Clear
7:53 AM 54.0 °F 48.9 °F 83% 30.09 in 9.0 mi Calm Calm - N/A   Clear
8:53 AM 59.0 °F 52.0 °F 78% 30.09 in 10.0 mi Variable 3.5 mph - N/A   Clear
9:53 AM 68.0 °F 57.9 °F 70% 30.07 in 10.0 mi SSW 10.4 mph - N/A   Clear
10:53 AM 69.1 °F 57.9 °F 68% 30.05 in 10.0 mi WSW 9.2 mph - N/A   Overcast
11:32 AM 70.0 °F 59.0 °F 68% 30.04 in 10.0 mi SSW 9.2 mph - N/A   Overcast
11:53 AM 71.1 °F 59.0 °F 66% 30.02 in 10.0 mi SSW 9.2 mph - N/A   Overcast
12:53 PM 71.1 °F 60.1 °F 68% 29.99 in 10.0 mi Variable 6.9 mph - N/A   Overcast
1:22 PM 70.0 °F 59.0 °F 68% 30.00 in 10.0 mi SW 10.4 mph 17.3 mph N/A   Overcast
2:53 PM 66.9 °F 61.0 °F 81% 29.99 in 3.0 mi Calm Calm - 0.01 in Rain Light Rain
3:25 PM 64.9 °F 63.0 °F 93% 30.00 in 5.0 mi Calm Calm - 0.02 in Rain Rain
3:45 PM 64.9 °F 63.0 °F 93% 30.00 in 4.0 mi South 4.6 mph - 0.05 in Rain Light Rain
3:53 PM 64.9 °F 63.0 °F 93% 29.99 in 8.0 mi South 3.5 mph - 0.05 in Rain Light Rain
4:19 PM 64.9 °F 63.0 °F 93% 30.00 in 7.0 mi Calm Calm - 0.00 in Rain Light Rain
4:53 PM 64.0 °F 63.0 °F 96% 30.00 in 9.0 mi SSW 3.5 mph - 0.00 in Rain Light Rain
5:27 PM 64.0 °F 63.0 °F 96% 30.00 in 7.0 mi South 3.5 mph - 0.01 in Rain Light Rain
5:53 PM 63.0 °F 63.0 °F 100% 29.99 in 5.0 mi Calm Calm - 0.01 in   Mostly Cloudy
6:21 PM 63.0 °F 62.1 °F 97% 30.00 in 1.8 mi Calm Calm - N/A   Overcast
6:53 PM 63.0 °F 62.1 °F 97% 29.99 in 3.0 mi Calm Calm - N/A   Overcast
7:02 PM 62.1 °F 62.1 °F 100% 30.00 in 1.8 mi Calm Calm - N/A   Mostly Cloudy
7:06 PM 62.1 °F 62.1 °F 100% 30.00 in 0.8 mi Calm Calm - N/A   Scattered Clouds
7:24 PM 62.1 °F 61.0 °F 96% 30.00 in 1.0 mi Calm Calm - N/A   Mostly Cloudy
7:39 PM 60.1 °F 60.1 °F 100% 30.00 in 0.8 mi Calm Calm - N/A   Mostly Cloudy
7:53 PM 61.0 °F 61.0 °F 100% 29.98 in 1.5 mi Calm Calm - N/A   Mostly Cloudy
8:53 PM 62.1 °F 62.1 °F 100% 29.98 in 3.0 mi Calm Calm - N/A   Overcast
9:53 PM 62.1 °F 62.1 °F 100% 29.95 in 4.0 mi Calm Calm - N/A   Mostly Cloudy
10:53 PM 62.1 °F 61.0 °F 96% 29.95 in 4.0 mi Calm Calm - N/A   Overcast
11:28 PM 61.0 °F 61.0 °F 100% 29.96 in 2.0 mi Calm Calm - N/A   Overcast
11:34 PM 61.0 °F 61.0 °F 100% 29.96 in 3.0 mi Calm Calm - N/A   Overcast
11:53 PM 62.1 °F 61.0 °F 96% 29.94 in 8.0 mi South 3.5 mph - N/A   Mostly Cloudy